Location: Marcé
(47.5801°N, 0.3280°W)
Time: 09:43:47
(UTC+01:00)

Vanguard 1 - Pass Details

Date: 09 December 2021
Orbit: 652 x 3830 km, 34.2° (Epoch: 24 January)

Event Time Altitude Azimuth Distance (km) Brightness Sun altitude
Rises 22:48:44 0° 221° (SW) 6,297 14.2 -54.9°
Reaches altitude 10° 22:52:41 10° 215° (SW) 5,653 13.9 -55.5°
Enters shadow 22:55:30 17° 209° (SSW) 5,262 13.6 -55.8°
Maximum altitude 23:09:49 43° 151° (SSE) 4,539 - -57.7°
Drops below altitude 10° 23:30:36 10° 90° (E) 6,793 - -60.2°
Sets 23:35:55 0° 85° (E) 7,618 - -60.8°
